Theta_e
322 322 321 321 321 320 320 321 322 324 325 325 325 325 326 326 325 327 325 341 345 357 361 355 353 351 345 341 344 344 326 320 322 322 325 332 328 334 335 332 334 336 336 341 344
322 321 321 321 321 320 320 320 320 322 323 324 324 325 326 326 323 320 341 357 356 359 355 346 343 345 345 340 341 336 324 322 329 331 328 330 330 330 329 331 331 333 339 343 344
321 321 321 321 321 320 320 320 319 320 322 323 324 325 326 327 322 322 355 359 358 359 353 350 347 343 336 341 338 336 325 331 330 332 333 331 330 332 329 326 332 331 336 340 341
321 321 321 321 320 320 320 320 319 319 320 322 324 325 326 326 319 331 356 362 359 358 351 346 346 336 333 331 340 331 335 332 333 334 333 330 333 328 330 331 335 337 339 340 340
321 321 321 321 320 320 320 320 319 319 319 321 324 325 324 321 323 348 361 360 358 355 348 341 337 335 330 335 336 330 331 333 335 334 334 334 331 330 331 335 337 338 339 339 340
322 322 322 320 320 320 319 319 318 318 319 321 324 324 324 320 336 342 353 355 352 351 346 342 337 341 336 336 334 334 331 332 335 334 334 331 331 332 333 337 335 337 337 338 339
322 321 321 320 319 319 318 318 318 318 320 322 324 327 321 322 335 341 349 346 352 351 339 340 342 333 339 337 340 336 328 332 333 334 331 333 327 329 335 336 334 335 337 339 339
321 321 320 319 318 318 317 317 318 320 322 324 325 325 322 335 344 343 346 342 346 347 344 341 340 333 340 341 337 331 332 325 330 331 332 331 323 331 335 335 333 334 337 338 340
320 320 319 318 318 317 316 317 320 323 324 325 325 323 319 338 334 339 344 338 342 341 340 339 335 324 333 329 325 327 321 323 325 331 330 328 326 332 335 334 333 335 336 337 339
320 320 318 317 317 316 316 317 322 324 326 327 326 321 321 318 327 335 340 336 330 327 323 325 326 324 330 324 317 318 320 322 323 328 330 327 327 331 333 332 332 334 336 337 338
319 319 317 317 316 316 317 322 319 315 317 313 317 316 318 321 324 326 332 332 329 320 316 316 318 319 323 328 326 322 319 318 325 332 329 327 328 330 333 331 330 332 335 336 338
319 317 317 316 315 315 317 316 312 312 309 314 315 316 318 319 315 321 330 325 319 314 317 315 316 319 317 314 312 319 320 318 322 331 331 329 328 331 333 332 331 331 333 335 338
317 317 316 314 314 316 317 315 316 315 311 312 315 316 316 318 315 318 324 323 318 311 317 318 316 312 310 311 313 315 316 316 319 329 330 327 325 328 332 334 334 333 333 335 336
316 316 315 313 313 320 316 316 318 315 307 307 310 314 316 317 313 322 324 321 316 316 309 310 315 310 311 312 316 314 312 317 322 322 314 326 310 325 329 329 331 333 333 333 335
316 315 314 313 321 317 314 320 317 315 295 306 310 317 317 314 313 313 319 317 315 315 312 310 310 308 310 312 311 309 311 319 321 319 314 316 312 317 324 326 329 333 332 335 336
315 314 314 317 321 319 320 318 316 303 293 305 310 309 310 312 310 312 313 316 314 309 311 309 309 310 309 309 311 312 310 310 311 312 305 309 309 313 319 323 328 333 335 335 337
314 312 315 321 319 320 319 316 302 296 304 303 305 307 308 308 309 308 308 308 306 303 305 307 306 309 311 308 310 310 311 305 303 303 303 310 305 314 325 328 332 334 336 337 339
312 311 315 322 324 322 316 308 297 299 300 307 306 305 305 308 308 307 306 305 309 307 306 304 300 305 309 310 309 310 312 306 300 301 304 312 303 315 327 331 335 338 339 339 339
311 323 322 321 322 322 311 300 301 301 304 304 306 303 304 306 305 306 306 306 308 309 303 303 305 308 309 310 309 308 305 310 306 305 302 305 315 318 325 328 331 333 337 336 338
322 321 315 318 318 314 307 301 304 306 306 305 302 304 303 304 303 304 305 308 306 309 312 308 303 308 306 309 308 309 310 303 305 297 296 302 307 312 319 323 329 328 330 333 338
321 313 318 320 315 309 303 305 305 308 307 305 303 303 304 303 304 304 305 307 309 308 311 310 307 305 308 307 307 306 305 306 305 304 299 299 306 316 317 323 327 328 331 332 325
320 310 323 319 307 309 304 306 302 306 308 306 306 305 304 304 304 304 304 307 310 310 306 311 308 303 305 309 309 309 308 307 301 302 303 303 304 316 321 327 324 324 323 323 320
318 318 325 316 305 305 307 304 306 306 306 305 304 305 306 305 303 305 306 309 310 310 309 311 306 301 302 306 309 307 307 308 307 307 303 299 304 317 324 326 321 315 316 316 316
320 311 315 318 318 309 307 306 305 309 308 309 307 306 305 304 307 306 306 308 310 311 310 313 308 306 301 304 308 305 306 307 306 302 303 304 308 314 321 322 318 317 317 317 320
321 314 315 310 311 312 309 309 306 306 311 311 309 307 305 302 304 304 308 308 310 310 311 312 305 308 307 307 307 306 305 305 305 306 303 305 307 313 321 322 320 320 319 316 315
318 317 321 317 313 311 305 309 307 308 309 308 307 308 308 304 305 304 307 308 307 310 311 311 307 308 304 306 306 304 305 305 305 305 306 307 308 317 322 322 319 316 314 314 313
324 326 318 307 311 310 311 310 308 311 311 311 309 308 307 308 310 312 312 311 311 310 309 309 308 307 302 305 303 300 305 305 306 308 308 305 311 316 316 317 316 313 313 312 311
Wind_Speed
16 16 15 15 15 15 15 15 15 15 14 14 13 13 12 10 10 7 5 6 8 16 8 9 6 5 3 1 1 2 3 9 10 10 11 11 12 8 8 13 7 3 17 20 19
16 16 16 15 15 15 14 14 15 15 14 15 13 13 11 9 7 7 6 11 17 13 11 8 6 6 1 1 0 5 8 10 6 8 12 10 10 12 12 12 13 15 20 19 18
17 16 16 16 15 15 15 14 15 15 15 15 13 12 11 10 8 10 13 10 16 12 8 1 8 3 1 2 1 1 7 4 4 8 13 13 11 9 13 10 13 21 22 19 17
17 17 17 16 16 16 15 14 15 15 15 14 13 12 10 6 2 7 14 11 12 9 8 6 6 5 2 4 3 5 4 4 8 12 12 11 10 12 5 12 14 19 19 17 16
15 16 16 17 17 16 15 15 15 15 14 14 13 11 7 8 10 12 16 9 12 9 6 1 3 3 3 7 6 8 7 11 11 13 13 12 11 10 6 10 18 19 17 16 13
17 17 17 18 18 17 17 16 15 15 14 14 12 11 7 5 3 11 15 12 10 9 2 2 5 5 5 7 4 7 10 14 12 13 12 13 13 5 9 17 20 18 16 14 13
18 17 18 19 19 18 17 17 15 15 14 12 9 7 7 8 4 11 12 8 5 7 1 3 5 6 3 9 5 6 15 12 12 11 9 13 9 13 15 19 19 17 14 13 12
18 19 19 20 19 19 18 17 15 13 11 8 6 6 3 5 3 9 10 8 7 5 6 5 3 4 2 5 7 5 8 9 10 10 9 10 13 14 17 19 18 16 13 12 11
19 20 21 20 20 20 17 17 12 6 5 5 7 7 7 1 5 9 9 1 8 6 4 6 6 4 4 7 7 5 7 8 8 10 9 9 11 15 16 16 16 14 13 12 12
19 20 22 21 21 20 18 8 1 4 5 6 5 7 5 4 5 7 8 5 2 4 6 5 8 8 8 6 3 6 5 5 7 9 7 7 11 15 16 15 16 15 14 13 12
20 21 23 22 22 19 13 6 7 7 8 4 7 2 9 7 5 7 7 10 5 7 9 5 8 8 3 3 3 1 2 1 5 7 10 8 11 14 16 14 15 15 14 14 13
21 22 23 23 22 16 7 4 6 7 7 6 4 5 3 3 7 10 8 10 8 7 5 9 11 4 2 3 8 9 7 5 6 9 10 10 10 13 16 14 14 16 15 15 15
21 22 24 23 23 7 5 4 3 5 7 10 6 8 6 9 10 14 14 10 10 7 9 13 9 4 4 7 9 10 9 4 1 11 4 8 10 13 14 14 12 12 14 14 15
22 21 19 26 6 3 2 2 9 6 6 12 11 8 8 8 8 7 12 8 6 10 4 7 2 5 8 6 9 7 2 6 8 13 6 10 5 12 14 14 14 12 12 12 14
22 20 16 9 8 5 6 8 1 5 7 5 9 4 5 14 12 11 6 8 13 10 9 7 7 6 11 3 3 6 1 4 6 8 4 9 9 10 8 12 15 14 9 11 12
20 20 15 5 5 4 6 4 6 8 6 7 6 11 13 14 7 9 12 8 3 7 7 1 2 4 2 3 4 11 9 7 4 8 9 7 7 12 8 5 2 8 17 14 13
23 19 6 3 3 5 6 6 7 9 3 5 5 10 18 13 13 10 15 16 12 12 12 9 7 2 6 8 7 10 11 8 9 10 10 6 7 13 8 3 5 7 11 16 13
23 14 5 3 5 7 6 8 8 3 2 2 2 6 16 13 15 11 11 15 9 10 10 13 11 10 2 7 7 13 12 11 11 10 8 5 7 9 6 3 3 8 14 15 15
22 4 2 4 4 5 8 11 3 2 1 2 5 8 13 10 7 13 15 15 16 14 10 11 8 7 3 4 2 7 10 7 13 6 11 11 8 6 5 6 4 5 11 12 13
5 2 4 3 1 7 9 12 2 2 3 5 7 3 11 15 13 13 14 13 8 9 9 7 9 5 6 5 5 6 7 8 8 13 12 8 5 2 7 6 10 10 10 8 11
5 4 4 4 5 6 10 8 4 5 3 4 3 5 4 7 12 14 11 5 8 10 10 8 13 12 7 9 8 8 9 5 7 5 10 9 3 6 5 5 11 9 11 11 16
4 3 3 4 5 2 6 1 2 6 5 5 5 8 8 4 10 12 12 6 5 8 11 11 9 10 11 6 2 5 6 8 8 11 8 10 4 6 8 11 11 10 11 13 13
4 2 3 4 3 4 5 5 5 9 11 10 10 5 4 5 6 10 11 7 7 10 7 9 9 7 8 9 5 8 4 6 7 7 9 10 6 8 9 14 12 12 11 11 10
5 3 4 2 1 5 2 2 5 4 10 12 12 11 14 13 7 4 9 5 6 4 3 3 5 9 5 1 7 8 8 5 10 10 9 10 12 12 13 16 14 13 14 12 12
3 4 4 2 4 2 3 3 7 7 8 9 10 17 14 15 10 11 9 7 7 7 5 7 4 2 5 7 4 3 5 5 10 10 11 6 4 15 14 15 15 14 12 11 9
5 5 2 0 2 4 5 1 8 7 8 10 11 14 14 16 12 3 10 9 8 7 7 5 5 8 7 4 4 4 3 3 4 5 6 7 4 15 14 14 13 12 10 9 9
3 1 6 4 3 6 4 5 7 9 6 10 11 10 12 13 9 8 7 5 4 8 6 4 8 7 6 1 3 8 4 5 4 5 8 8 9 16 15 15 13 10 7 7 7
Wind_Direction
356 354 353 348 341 336 334 336 332 328 333 323 329 322 315 326 299 204 211 137 172 169 222 152 149 170 220 38 312 270 117 98 104 107 121 126 119 88 103 132 106 99 135 131 143
355 354 351 348 341 336 332 334 328 326 329 321 326 317 317 331 251 212 98 118 130 167 175 174 154 164 209 32 313 274 90 79 87 94 126 131 121 124 142 126 119 109 117 134 149
353 352 348 343 339 335 331 331 326 324 323 319 321 314 317 306 241 99 121 121 152 192 177 147 148 201 224 206 122 34 71 68 100 123 134 131 119 128 136 127 143 143 142 149 156
351 348 345 339 337 332 330 328 325 321 317 316 315 311 314 247 100 92 124 132 169 200 179 189 192 199 199 169 135 150 97 120 117 137 130 126 122 134 44 122 135 140 145 151 163
345 339 339 339 334 330 326 323 320 315 312 310 308 311 269 215 77 118 126 125 169 202 238 85 167 189 137 105 135 73 90 111 119 134 125 128 122 111 92 141 133 136 148 155 161
332 329 329 332 331 329 324 320 315 308 303 300 300 303 248 174 52 138 153 164 186 210 222 309 20 3 94 87 33 115 108 106 123 121 130 128 134 122 113 138 136 145 149 152 156
332 330 334 335 331 327 323 317 307 298 293 288 286 278 252 69 23 147 164 188 184 212 223 34 328 287 141 121 146 130 123 116 131 140 146 138 134 102 134 139 144 152 148 145 151
333 330 335 335 331 326 323 313 302 290 280 267 262 254 78 17 113 158 178 187 206 235 271 319 259 308 337 111 171 153 201 159 148 163 160 239 118 136 151 150 153 153 150 155 155
333 330 336 334 331 326 319 313 299 273 226 198 228 259 118 150 183 167 192 204 176 202 224 263 233 159 189 186 157 205 120 111 148 196 152 228 114 146 162 163 155 162 159 164 161
331 330 336 333 331 326 317 284 335 203 202 223 256 233 168 154 140 168 189 248 238 156 170 182 221 205 174 190 35 101 144 125 129 172 186 178 109 154 170 170 167 170 167 168 173
332 332 336 332 330 326 310 207 202 169 208 323 156 6 130 123 173 195 176 189 213 238 223 201 240 208 181 235 347 310 294 118 133 144 189 169 138 162 175 176 170 178 177 181 181
332 335 335 332 327 321 270 280 40 355 205 207 239 254 231 284 180 186 185 207 203 223 215 206 232 106 272 262 271 251 254 208 122 155 229 151 152 160 176 183 173 178 179 186 186
333 334 334 329 321 274 309 67 28 319 257 165 196 218 184 200 216 181 198 209 217 194 243 270 61 87 260 264 254 227 245 170 127 157 207 163 149 160 171 184 174 188 182 189 188
333 330 332 326 290 5 177 47 308 248 258 151 196 200 182 223 202 158 209 210 216 233 182 291 99 266 244 233 240 173 289 225 158 193 172 220 111 169 165 183 185 188 186 195 195
329 327 325 331 327 228 46 326 169 234 260 104 151 71 160 204 122 171 175 210 239 195 220 188 236 214 244 212 240 106 178 156 193 241 254 176 272 124 165 183 185 189 185 205 201
325 322 320 189 217 341 306 289 236 231 229 157 166 185 183 205 172 130 178 223 311 190 214 241 326 232 31 73 263 146 151 151 201 264 238 124 264 131 110 84 177 203 183 190 209
326 324 274 296 53 333 296 214 218 248 117 150 202 195 202 185 184 197 185 192 198 200 202 182 199 120 200 164 158 221 206 226 215 212 243 105 225 73 98 83 286 252 222 190 175
323 316 157 304 307 302 227 212 237 41 261 61 280 232 221 196 206 191 201 205 224 238 227 202 183 174 183 247 230 213 250 254 259 256 261 118 250 98 92 79 285 242 223 195 185
312 173 202 32 290 247 226 216 231 193 246 277 221 233 206 212 269 206 216 215 196 216 238 217 200 124 193 145 259 166 225 330 284 231 272 270 117 180 120 79 18 123 141 159 166
305 237 71 9 322 241 227 234 144 307 312 250 255 237 236 201 206 206 194 215 197 221 236 222 206 180 143 159 91 296 122 211 215 267 259 240 259 185 156 118 107 88 94 109 121
240 222 83 289 261 217 223 225 184 184 313 303 248 245 240 258 226 209 209 136 219 176 218 242 242 146 193 212 200 167 200 236 293 299 291 264 164 77 118 129 119 119 129 99 73
291 204 56 268 209 248 231 307 31 236 210 272 286 286 276 237 224 234 210 229 162 184 204 216 228 183 191 77 286 297 315 233 235 199 236 296 67 123 127 125 112 98 96 86 83
345 16 131 270 230 165 135 220 258 250 247 248 244 238 324 282 240 226 226 89 180 194 207 189 224 159 177 173 177 223 171 276 288 293 267 281 91 146 137 113 112 113 103 110 115
282 215 146 166 340 314 338 274 265 222 269 260 257 258 247 251 249 229 201 157 166 173 321 224 251 261 245 161 145 173 185 220 257 273 273 237 129 159 152 135 130 128 135 138 127
340 67 6 153 130 329 268 334 283 280 246 262 251 237 237 237 234 238 197 156 170 146 184 250 199 207 65 90 80 100 174 215 246 272 278 355 195 168 161 151 143 140 137 127 112
327 319 171 178 237 247 152 319 306 313 268 260 235 267 232 235 231 267 197 213 176 175 174 209 145 139 98 113 140 166 176 232 266 262 263 270 127 147 148 136 151 143 133 110 95
27 226 283 133 204 242 58 344 325 324 242 256 282 268 241 242 238 286 152 127 129 156 128 127 148 201 132 200 198 234 223 270 292 274 300 238 141 150 158 167 154 140 122 101 95